Skip Page Navigation
NASA JPL Caltech
NASA Logo - Jet Propulsion Laboratory + View the NASA Portal
+ Near-Earth Object (NEO) Program
Search JPL
JPL Home Earth Solar System Stars & Galaxies Technology
JPL Solar System Dynamics
BODIES ORBITS EPHEMERIDES TOOLS PHYSICAL DATA DISCOVERY FAQ SITE MAP
JPL Small-Body Database Browser
Search: [ help ]  
8045 Kamiyama (1995 AW)
Classification: Main-belt Asteroid          SPK-ID: 2008045
Ephemeris | Orbit Diagram | Orbital Elements | Physical Parameters | Discovery Circumstances | Close-Approach Data ]

[ show orbit diagram ]
Orbital Elements at Epoch 2457000.5 (2014-Dec-09.0) TDB
Reference: JPL 8 (heliocentric ecliptic J2000)
 Element Value Uncertainty (1-sigma)   Units 
e .1383746551699237 6.3588e-08  
a 2.59814779190204 1.8377e-08 AU
q 2.238629987117097 1.6546e-07 AU
i 11.97092456349142 5.9415e-06 deg
node 295.4569689713543 3.0496e-05 deg
peri 248.7510532069302 3.534e-05 deg
M 222.074743468132 1.8066e-05 deg
tp 2457586.551125016983
(2016-Jul-17.05112502)
7.7672e-05 JED
period 1529.657513867788
4.19
1.6229e-05
4.443e-08
d
yr
n .2353467993562353 2.4969e-09 deg/d
Q 2.957665596686984 2.092e-08 AU
  Orbit Determination Parameters
   # obs. used (total)      899  
   data-arc span      23990 days (65.68 yr)  
   first obs. used      1949-01-28  
   last obs. used      2014-10-04  
   planetary ephem.      DE431  
   SB-pert. ephem.      SB431-BIG16  
   condition code      0  
   fit RMS      .55112  
   data source      ORB  
   producer      Otto Matic  
   solution date      2014-Oct-09 14:11:46  

Additional Information
 Earth MOID = 1.2755 AU 
 T_jup = 3.372 
[ show covariance matrix ]

Ephemeris | Orbit Diagram | Orbital Elements | Physical Parameters | Discovery Circumstances | Close-Approach Data ]

Physical Parameter Table
Parameter Symbol Value Units Sigma Reference Notes
absolute magnitude H 12.4 mag n/a MPO267740  

8045 Kamiyama           Discovered 1995 Jan. 6 by T. Kobayashi at Oizumi.
Haruki Kamiyama (b. 1960) is an amateur astronomer and computer programmer.
NOTE: some special characters may not display properly (any characters within {} are an attempt to place the proper accent above a character)
Reference: 20030106/MPCPages.arcLast Updated: 2003-10-02

[ show close-approach data ]
Alternate Designations
 1995 AW = 1949 BH = 1970 CU = 1973 YV3 = 1991 BT4 
Ephemeris | Orbit Diagram | Orbital Elements | Physical Parameters | Discovery Circumstances | Close-Approach Data ]
ABOUT SSD CREDITS/AWARDS PRIVACY/COPYRIGHT GLOSSARY LINKS
FirstGov 2014-Oct-20 08:09 UT
(server date/time)  
NASA Home Page
Site Manager:   Donald K. Yeomans
Webmaster  Alan B. Chamberlin